Vorticity
7 3 13 13 15 13 10 10 12 8 8 6 -9 1 5 8 24 8 22 29 22 22 20 12 13 23 14 13 6 7 5 5 5 5 4 7 7 7 5 8 9 7 11 12 9 4 9 12 8 10 11 11 13 21
5 13 10 9 18 10 13 9 13 13 13 10 9 8 -9 -1 26 16 33 26 18 26 20 32 18 17 10 21 11 2 3 3 5 5 5 10 13 14 14 11 3 7 9 8 10 12 9 11 10 6 11 3 10 7
10 5 16 8 12 9 12 12 11 13 13 16 16 20 17 13 31 12 43 18 18 22 21 25 27 13 23 7 25 15 2 0 -4 0 3 10 7 8 9 10 11 11 4 4 9 9 9 10 11 8 8 6 4 7
7 26 5 20 10 7 7 7 7 5 8 11 14 14 7 1 30 16 38 14 18 15 17 22 25 25 27 8 5 25 27 12 5 12 10 11 4 3 4 7 6 7 10 12 8 3 6 9 9 9 8 8 7 7
13 7 15 7 6 7 7 5 7 5 6 8 11 10 16 7 21 19 25 20 19 20 22 16 19 23 22 11 6 13 20 15 24 -3 -0 -2 7 10 18 16 12 16 14 9 10 8 4 2 7 10 13 13 13 13
1 12 13 11 5 6 8 6 5 5 7 5 10 8 3 13 10 18 14 15 18 16 15 13 20 26 17 13 11 16 19 24 24 18 21 33 10 9 8 5 6 9 11 13 16 8 6 8 4 4 4 4 6 7
21 18 8 7 8 4 7 6 3 3 5 2 5 11 6 18 22 25 23 19 14 12 15 3 11 17 19 22 30 30 29 21 29 18 5 4 5 7 9 3 9 13 17 20 10 12 11 10 9 9 3 5 4 3
18 6 6 6 6 5 7 5 5 6 6 2 0 -1 14 13 16 36 12 30 7 11 15 10 14 4 13 7 -1 4 9 -1 13 4 6 8 3 5 -5 8 13 -21 17 15 18 21 18 10 6 6 10 9 4 4
6 8 6 7 5 5 5 7 5 1 2 4 3 -0 1 6 0 11 1 17 51 18 7 12 4 26 2 5 13 4 5 8 7 2 4 4 11 1 4 11 21 17 77 85 73 28 24 14 8 6 8 9 9 10
3 6 9 4 6 5 5 6 4 1 -1 -2 2 5 2 2 4 5 15 8 -4 19 43 20 16 14 4 15 12 10 13 5 9 11 11 11 23 8 26 16 9 55 -3 23 -12 47 51 32 10 16 8 8 9 9
-2 12 5 5 5 6 4 7 5 4 -3 0 0 4 1 1 6 -6 8 20 -3 20 -8 23 57 40 18 10 7 15 12 24 6 9 13 15 10 15 5 7 7 17 22 32 18 40 31 18 -2 17 23 9 9 8
18 8 3 6 6 7 5 4 4 5 3 1 2 4 4 3 4 7 -3 1 8 9 14 1 -7 13 55 27 18 12 13 12 13 10 17 15 3 9 9 1 21 15 14 9 0 -1 4 5 28 8 40 12 7 8
6 2 4 8 -0 8 9 9 3 4 4 -1 3 -0 -1 1 2 5 2 3 -0 -1 -1 -4 7 7 4 53 32 14 20 13 12 12 10 12 3 6 11 12 7 2 39 17 11 27 10 8 16 36 37 6 12 10
9 4 4 6 4 4 8 15 12 1 4 3 4 1 2 0 1 6 2 3 3 -3 4 3 6 4 15 -1 45 24 15 22 13 5 7 6 7 4 9 12 3 6 -2 37 36 -20 14 11 -7 5 -9 12 8 11
11 4 5 5 5 -2 6 8 14 15 7 4 2 4 3 1 0 6 3 4 5 -1 3 6 10 1 8 3 8 25 22 9 14 14 12 4 5 2 6 12 12 3 5 11 7 12 28 30 17 18 21 18 11 8
7 7 3 9 1 1 5 5 16 8 12 12 3 -1 2 5 3 5 6 6 6 7 1 8 9 4 -1 5 6 8 -5 48 8 -8 5 -17 9 10 -1 6 13 11 16 11 13 13 10 9 11 3 6 9 9 13
9 4 9 1 6 -1 1 1 12 15 12 11 7 3 5 4 4 5 7 9 11 9 5 10 10 4 7 -7 13 8 12 12 31 17 6 -6 19 2 9 6 -1 8 18 10 17 16 20 16 20 9 13 17 13 12
3 6 4 8 3 1 8 16 18 7 8 8 9 9 8 2 5 6 11 14 14 11 10 6 7 9 4 5 2 4 9 1 13 15 20 19 13 11 12 3 7 8 4 10 11 8 14 19 7 -10 7 3 0 8
3 5 6 4 6 -2 3 9 11 9 2 6 5 5 7 7 5 11 11 9 10 11 10 7 4 5 6 9 4 6 4 1 15 22 19 21 17 26 6 16 5 4 14 -0 13 4 4 14 5 19 -5 0 4 3
3 8 6 7 6 3 6 13 1 4 5 6 4 8 9 11 10 14 9 5 9 10 10 4 7 8 4 6 5 10 17 19 26 26 26 16 14 22 30 5 20 5 2 15 -1 7 8 4 8 5 -0 5 5 5
4 5 4 3 1 -0 3 14 11 8 9 5 3 6 8 13 10 8 7 4 11 11 6 -0 4 6 8 9 17 21 39 35 28 28 22 15 7 16 27 34 5 22 7 5 11 12 1 1 4 6 7 4 3 4
0 1 3 6 3 4 9 2 9 12 6 5 8 8 5 11 9 6 4 4 7 7 5 4 5 9 24 30 31 41 31 24 29 30 24 27 9 2 26 25 20 13 19 0 7 5 12 15 8 4 5 6 10 12
3 3 3 1 8 9 9 5 7 9 14 12 9 7 11 12 8 6 4 8 9 2 5 12 19 33 32 28 27 26 9 10 16 14 15 12 23 8 14 29 24 20 11 30 5 -2 4 5 10 5 2 5 6 6
8 5 2 5 8 5 10 8 9 12 8 9 10 9 7 8 5 3 3 15 7 6 18 38 39 37 25 25 22 11 10 18 17 12 17 15 10 10 17 16 24 23 26 9 11 13 17 17 13 7 5 5 2 1
8 6 4 7 9 8 12 13 9 10 9 9 9 5 5 6 4 5 18 15 24 36 38 39 25 18 16 16 17 22 20 19 25 17 8 14 5 16 15 15 19 23 24 29 12 8 15 15 10 10 9 11 13 13
9 6 9 8 13 13 11 10 11 7 8 6 5 5 6 5 13 22 46 34 39 26 21 18 17 23 20 7 15 -11 -5 11 20 17 7 11 11 15 11 15 17 20 19 22 25 14 11 16 20 15 13 13 12 10
10 11 10 10 16 14 12 8 6 5 4 4 6 9 8 19 45 42 33 26 20 19 16 13 12 13 21 13 12 10 10 13 18 17 -1 17 9 11 12 14 21 17 14 18 21 22 20 17 17 16 13 12 12 15
8 11 16 8 6 9 5 7 7 5 7 11 13 24 33 46 24 22 13 11 15 16 16 18 14 11 14 22 12 7 7 19 11 21 -0 20 12 7 13 12 13 19 17 15 17 16 17 18 17 16 16 14 14 17
14 11 4 4 5 7 9 13 14 15 13 26 33 36 25 21 25 16 13 15 13 13 13 18 21 17 19 14 18 19 21 25 -2 10 3 18 16 8 13 16 14 11 12 15 15 16 17 17 18 17 14 12 9 5
4 6 8 6 5 10 21 21 16 15 18 18 21 17 14 18 12 8 4 4 6 4 4 11 19 24 18 9 20 12 21 36 6 11 9 21 16 5 10 18 19 15 13 12 13 12 12 12 12 13 14 15 15 15
7 9 11 14 19 29 24 16 30 30 21 9 17 10 10 0 7 19 20 12 7 3 -1 -0 2 6 19 14 18 28 21 22 8 20 24 24 16 13 6 4 8 19 27 21 16 15 14 13 12 12 12 13 13 12
11 13 19 30 31 28 34 33 17 7 9 14 4 -3 -3 -3 13 -36 31 22 23 60 17 0 2 3 6 24 7 27 25 5 5 -0 5 15 22 20 13 7 4 -0 2 10 16 16 16 16 17 18 16 14 13 12
24 27 25 28 27 16 9 6 6 2 1 9 -0 -8 11 19 17 12 29 19 22 33 30 12 10 6 16 25 8 29 17 6 2 4 6 5 13 12 16 17 14 12 8 4 4 6 8 10 10 9 8 7 7 8
Height
5675 5675 5675 5674 5673 5672 5671 5670 5668 5664 5660 5657 5654 5649 5641 5631 5618 5605 5594 5588 5585 5580 5576 5574 5575 5578 5579 5583 5589 5594 5596 5600 5603 5605 5607 5608 5610 5611 5612 5613 5613 5615 5615 5615 5616 5617 5619 5619 5620 5620 5622 5622 5624 5626
5664 5665 5667 5666 5666 5665 5665 5664 5661 5657 5653 5649 5646 5642 5634 5626 5615 5600 5590 5583 5581 5577 5572 5570 5569 5573 5576 5578 5583 5588 5592 5595 5597 5599 5602 5603 5605 5606 5608 5610 5610 5611 5612 5613 5614 5614 5615 5616 5617 5617 5619 5620 5622 5623
5654 5656 5658 5659 5660 5659 5658 5656 5654 5650 5646 5641 5637 5634 5627 5620 5612 5597 5587 5580 5576 5574 5570 5567 5566 5567 5571 5575 5578 5581 5585 5589 5592 5593 5595 5598 5599 5601 5602 5603 5604 5606 5606 5608 5609 5610 5610 5611 5612 5614 5615 5617 5619 5620
5644 5647 5649 5652 5653 5653 5652 5650 5648 5645 5640 5633 5628 5625 5620 5614 5606 5594 5586 5580 5575 5572 5569 5566 5564 5564 5567 5571 5574 5576 5578 5581 5585 5587 5589 5592 5593 5595 5597 5596 5598 5600 5601 5603 5604 5605 5604 5605 5607 5609 5610 5612 5614 5615
5634 5637 5641 5644 5645 5647 5646 5645 5643 5640 5635 5625 5621 5618 5613 5608 5601 5591 5584 5579 5577 5574 5569 5566 5565 5565 5565 5568 5571 5571 5573 5575 5577 5581 5584 5585 5586 5587 5589 5589 5592 5589 5590 5591 5595 5594 5595 5598 5600 5601 5603 5605 5607 5609
5625 5629 5633 5636 5639 5641 5641 5640 5638 5636 5632 5624 5617 5612 5609 5605 5598 5588 5584 5581 5576 5573 5570 5568 5566 5565 5566 5566 5567 5568 5569 5570 5572 5575 5578 5578 5580 5581 5582 5582 5582 5580 5580 5580 5582 5583 5584 5589 5592 5594 5596 5598 5600 5602
5617 5621 5625 5629 5632 5635 5635 5635 5634 5632 5628 5622 5617 5612 5605 5600 5596 5590 5586 5582 5579 5576 5575 5572 5569 5568 5567 5566 5566 5566 5567 5568 5570 5571 5573 5574 5575 5574 5574 5572 5571 5569 5568 5567 5567 5571 5574 5579 5584 5586 5589 5591 5593 5595
5608 5613 5617 5621 5626 5628 5629 5630 5631 5628 5626 5620 5615 5612 5606 5600 5595 5589 5585 5581 5579 5577 5576 5574 5572 5571 5570 5569 5568 5567 5568 5568 5569 5570 5570 5569 5569 5569 5567 5564 5559 5553 5546 5546 5549 5553 5559 5563 5569 5573 5578 5582 5584 5587
5600 5605 5610 5614 5619 5621 5622 5624 5625 5624 5621 5617 5613 5611 5606 5602 5598 5593 5586 5582 5577 5577 5574 5573 5572 5571 5569 5567 5566 5566 5566 5566 5567 5566 5566 5566 5564 5562 5560 5556 5549 5539 5523 5517 5521 5529 5540 5548 5556 5561 5568 5573 5575 5578
5593 5599 5602 5607 5610 5613 5615 5618 5617 5617 5616 5613 5612 5610 5606 5603 5599 5595 5589 5585 5581 5578 5573 5570 5568 5567 5567 5564 5563 5564 5562 5563 5563 5562 5561 5560 5558 5556 5553 5546 5540 5535 5527 5522 5520 5522 5525 5537 5546 5551 5557 5562 5566 5570
5586 5591 5595 5599 5602 5606 5608 5610 5611 5611 5610 5608 5608 5606 5603 5601 5598 5594 5588 5586 5581 5578 5574 5570 5566 5563 5561 5560 5559 5559 5558 5558 5558 5558 5556 5554 5552 5549 5545 5541 5537 5533 5530 5528 5526 5525 5529 5535 5539 5543 5547 5552 5557 5561
5579 5584 5588 5591 5595 5597 5600 5601 5604 5605 5604 5603 5603 5601 5598 5596 5595 5593 5588 5582 5578 5575 5573 5570 5567 5561 5556 5554 5552 5552 5552 5552 5552 5552 5550 5546 5546 5543 5540 5538 5535 5533 5530 5529 5528 5528 5531 5534 5536 5538 5541 5544 5550 5553
5573 5577 5580 5583 5586 5589 5593 5595 5596 5597 5597 5597 5597 5595 5593 5591 5587 5584 5583 5579 5575 5572 5570 5567 5564 5560 5556 5550 5547 5546 5546 5547 5546 5546 5544 5541 5541 5538 5536 5535 5533 5531 5528 5527 5527 5529 5530 5531 5532 5533 5536 5539 5543 5547
5566 5569 5574 5576 5578 5581 5584 5586 5588 5589 5590 5590 5590 5588 5587 5584 5581 5577 5574 5572 5571 5567 5564 5561 5559 5557 5554 5551 5545 5541 5542 5541 5541 5539 5537 5537 5535 5534 5532 5531 5530 5529 5527 5524 5525 5527 5528 5527 5529 5531 5533 5535 5537 5540
5558 5562 5566 5568 5570 5573 5576 5577 5579 5581 5582 5582 5583 5581 5579 5577 5574 5571 5567 5565 5563 5561 5557 5554 5552 5551 5549 5547 5545 5540 5539 5539 5534 5532 5530 5529 5528 5527 5527 5526 5526 5525 5524 5524 5524 5523 5523 5524 5525 5527 5528 5529 5531 5533
5551 5555 5559 5562 5563 5565 5567 5568 5571 5571 5571 5572 5573 5572 5571 5569 5566 5563 5560 5557 5554 5552 5549 5547 5544 5542 5542 5539 5538 5536 5533 5530 5528 5524 5521 5519 5518 5519 5520 5520 5519 5519 5518 5518 5518 5519 5520 5521 5521 5522 5523 5524 5525 5526
5544 5548 5551 5553 5555 5557 5559 5562 5561 5561 5561 5561 5561 5561 5561 5558 5556 5554 5551 5549 5546 5542 5540 5536 5534 5533 5532 5531 5527 5524 5522 5519 5516 5514 5510 5508 5508 5509 5509 5511 5512 5512 5512 5512 5512 5512 5513 5515 5516 5518 5518 5519 5520 5520
5537 5540 5542 5545 5546 5548 5551 5552 5552 5551 5552 5551 5550 5548 5549 5547 5544 5542 5540 5538 5535 5531 5529 5526 5525 5523 5519 5517 5514 5510 5508 5507 5504 5501 5499 5496 5494 5497 5498 5499 5501 5503 5504 5505 5506 5506 5507 5508 5510 5511 5512 5513 5514 5515
5528 5531 5533 5536 5539 5541 5542 5543 5542 5541 5541 5539 5537 5536 5536 5536 5533 5531 5528 5524 5520 5516 5514 5515 5512 5511 5507 5500 5496 5496 5493 5490 5489 5488 5486 5483 5481 5482 5485 5487 5490 5492 5494 5496 5498 5500 5501 5502 5503 5504 5506 5507 5508 5508
5521 5523 5526 5528 5530 5531 5532 5533 5532 5531 5530 5527 5526 5525 5525 5523 5521 5518 5514 5511 5507 5503 5501 5501 5499 5494 5487 5485 5479 5478 5475 5470 5467 5466 5468 5468 5468 5468 5470 5473 5475 5479 5483 5485 5488 5490 5492 5494 5496 5497 5498 5499 5500 5501
5513 5514 5517 5519 5521 5522 5523 5521 5521 5520 5517 5516 5515 5514 5514 5511 5508 5504 5500 5496 5494 5493 5489 5486 5480 5474 5469 5464 5461 5458 5454 5449 5447 5447 5450 5454 5455 5456 5457 5459 5462 5466 5470 5473 5476 5479 5482 5484 5486 5488 5490 5491 5492 5493
5502 5505 5507 5509 5511 5511 5511 5510 5509 5507 5507 5506 5505 5501 5500 5498 5495 5491 5487 5484 5482 5479 5473 5467 5462 5455 5453 5449 5443 5439 5438 5435 5435 5436 5437 5440 5443 5445 5445 5446 5450 5452 5456 5460 5463 5467 5470 5473 5476 5478 5480 5481 5483 5484
5494 5496 5498 5499 5499 5498 5499 5498 5498 5496 5494 5494 5491 5488 5487 5485 5482 5479 5475 5472 5468 5461 5457 5451 5444 5438 5434 5431 5429 5428 5427 5427 5427 5428 5428 5430 5432 5433 5434 5435 5437 5440 5443 5446 5450 5455 5458 5461 5464 5466 5468 5470 5472 5473
5482 5483 5485 5486 5486 5485 5486 5486 5485 5484 5482 5479 5478 5475 5472 5470 5467 5463 5460 5455 5445 5441 5436 5430 5425 5423 5420 5419 5418 5418 5418 5419 5419 5420 5420 5422 5423 5423 5423 5424 5426 5428 5431 5434 5438 5441 5444 5447 5450 5453 5456 5458 5460 5461
5472 5473 5473 5472 5472 5473 5474 5473 5471 5470 5469 5465 5463 5460 5457 5453 5449 5446 5442 5436 5429 5422 5419 5416 5414 5412 5411 5410 5410 5411 5410 5410 5411 5412 5413 5412 5414 5414 5414 5414 5415 5416 5419 5422 5425 5429 5432 5434 5437 5439 5442 5443 5445 5446
5459 5458 5458 5459 5460 5461 5461 5460 5459 5457 5453 5449 5448 5445 5441 5436 5431 5427 5422 5417 5414 5410 5408 5407 5406 5405 5404 5403 5403 5403 5403 5402 5402 5404 5406 5404 5405 5406 5406 5406 5406 5407 5409 5411 5414 5416 5419 5422 5424 5426 5428 5430 5432 5433
5446 5447 5448 5448 5448 5448 5447 5447 5444 5441 5438 5435 5432 5428 5423 5419 5417 5413 5408 5406 5404 5402 5401 5399 5398 5397 5396 5395 5394 5394 5394 5394 5394 5396 5398 5398 5397 5397 5399 5399 5399 5399 5400 5401 5403 5405 5407 5409 5411 5414 5415 5417 5419 5420
5436 5437 5438 5435 5435 5433 5433 5432 5430 5426 5422 5420 5415 5412 5411 5408 5406 5402 5399 5397 5395 5394 5393 5391 5390 5388 5387 5387 5387 5387 5387 5387 5388 5389 5391 5391 5390 5391 5392 5392 5392 5392 5393 5393 5394 5396 5397 5399 5401 5403 5404 5405 5406 5407
5429 5428 5424 5423 5422 5421 5421 5417 5414 5409 5406 5403 5403 5403 5402 5400 5397 5394 5392 5390 5389 5387 5386 5384 5383 5380 5380 5380 5379 5379 5379 5380 5382 5384 5384 5384 5383 5383 5385 5385 5384 5385 5385 5386 5386 5387 5388 5389 5391 5392 5393 5394 5395 5396
5415 5412 5412 5411 5409 5407 5405 5401 5398 5395 5394 5395 5395 5395 5394 5393 5391 5388 5387 5385 5383 5381 5379 5377 5376 5374 5374 5374 5374 5373 5371 5373 5375 5377 5378 5377 5376 5377 5377 5377 5377 5377 5378 5378 5378 5379 5380 5380 5381 5381 5382 5382 5383 5383
5400 5398 5396 5394 5394 5392 5389 5387 5387 5388 5389 5388 5387 5387 5386 5385 5385 5383 5378 5374 5371 5369 5369 5369 5369 5368 5367 5366 5366 5366 5365 5366 5369 5370 5370 5370 5370 5371 5371 5371 5370 5370 5370 5370 5371 5371 5371 5371 5371 5371 5371 5371 5371 5371
5384 5383 5382 5380 5380 5380 5379 5380 5380 5381 5382 5381 5380 5379 5378 5375 5374 5373 5367 5361 5356 5352 5355 5357 5359 5360 5359 5359 5360 5359 5359 5361 5363 5365 5365 5365 5365 5365 5365 5364 5364 5363 5363 5362 5362 5362 5362 5362 5361 5361 5360 5360 5359 5359
5372 5371 5371 5373 5373 5374 5373 5372 5374 5375 5375 5374 5373 5371 5368 5364 5361 5360 5353 5348 5346 5344 5344 5347 5350 5351 5352 5352 5354 5353 5355 5356 5358 5359 5360 5360 5359 5358 5357 5356 5356 5355 5354 5354 5354 5353 5352 5351 5350 5350 5349 5348 5347 5346